Year,Month,Day,Hour,Minute,Value (Times are PST for insolation in W/m^2)
2008,12,21,00,00,0.00
2008,12,21,00,01,0.00
2008,12,21,00,02,0.00
2008,12,21,00,03,0.00
2008,12,21,00,04,0.00
2008,12,21,00,05,0.00
2008,12,21,00,06,0.00
2008,12,21,00,07,0.00
2008,12,21,00,08,0.00
2008,12,21,00,09,0.00
2008,12,21,00,10,0.00
2008,12,21,00,11,0.00
2008,12,21,00,12,0.00
2008,12,21,00,13,0.00
2008,12,21,00,14,0.00
2008,12,21,00,15,0.00
2008,12,21,00,16,0.00
2008,12,21,00,17,0.00
2008,12,21,00,18,0.00
2008,12,21,00,19,0.00
2008,12,21,00,20,0.00
2008,12,21,00,21,0.00
2008,12,21,00,22,0.00
2008,12,21,00,23,0.00
2008,12,21,00,24,0.00
2008,12,21,00,25,0.00
2008,12,21,00,26,0.00
2008,12,21,00,27,0.00
2008,12,21,00,28,0.00
2008,12,21,00,29,0.00
2008,12,21,00,30,0.00
2008,12,21,00,31,0.00
2008,12,21,00,32,0.00
2008,12,21,00,33,0.00
2008,12,21,00,34,0.00
2008,12,21,00,35,0.00
2008,12,21,00,36,0.00
2008,12,21,00,37,0.00
2008,12,21,00,38,0.00
2008,12,21,00,39,0.00
2008,12,21,00,40,0.00
2008,12,21,00,41,0.00
2008,12,21,00,42,0.00
2008,12,21,00,43,0.00
2008,12,21,00,44,0.00
2008,12,21,00,45,0.00
2008,12,21,00,46,0.00
2008,12,21,00,47,0.00
2008,12,21,00,48,0.00
2008,12,21,00,49,0.00
2008,12,21,00,50,0.00
2008,12,21,00,51,0.00
2008,12,21,00,52,0.00
2008,12,21,00,53,0.00
2008,12,21,00,54,0.00
2008,12,21,00,55,0.00
2008,12,21,00,56,0.00
2008,12,21,00,57,0.00
2008,12,21,00,58,0.00
2008,12,21,00,59,0.00
2008,12,21,01,00,0.00
2008,12,21,01,01,0.00
2008,12,21,01,02,0.00
2008,12,21,01,03,0.00
2008,12,21,01,04,0.00
2008,12,21,01,05,0.00
2008,12,21,01,06,0.00
2008,12,21,01,07,0.00
2008,12,21,01,08,0.00
2008,12,21,01,09,0.00
2008,12,21,01,10,0.00
2008,12,21,01,11,0.00
2008,12,21,01,12,0.00
2008,12,21,01,13,0.00
2008,12,21,01,14,0.00
2008,12,21,01,15,0.00
2008,12,21,01,16,0.00
2008,12,21,01,17,0.00
2008,12,21,01,18,0.00
2008,12,21,01,19,0.00
2008,12,21,01,20,0.00
2008,12,21,01,21,0.00
2008,12,21,01,22,0.00
2008,12,21,01,23,0.00
2008,12,21,01,24,0.00
2008,12,21,01,25,0.00
2008,12,21,01,26,0.00
2008,12,21,01,27,0.00
2008,12,21,01,28,0.00
2008,12,21,01,29,0.00
2008,12,21,01,30,0.00
2008,12,21,01,31,0.00
2008,12,21,01,32,0.00
2008,12,21,01,33,0.00
2008,12,21,01,34,0.00
2008,12,21,01,35,0.00
2008,12,21,01,36,0.00
2008,12,21,01,37,0.00
2008,12,21,01,38,0.00
2008,12,21,01,39,0.00
2008,12,21,01,40,0.00
2008,12,21,01,41,0.00
2008,12,21,01,42,0.00
2008,12,21,01,43,0.00
2008,12,21,01,44,0.00
2008,12,21,01,45,0.00
2008,12,21,01,46,0.00
2008,12,21,01,47,0.00
2008,12,21,01,48,0.00
2008,12,21,01,49,0.00
2008,12,21,01,50,0.00
2008,12,21,01,51,0.00
2008,12,21,01,52,0.00
2008,12,21,01,53,0.00
2008,12,21,01,54,0.00
2008,12,21,01,55,0.00
2008,12,21,01,56,0.00
2008,12,21,01,57,0.00
2008,12,21,01,58,0.00
2008,12,21,01,59,0.00
2008,12,21,02,00,0.00
2008,12,21,02,01,0.00
2008,12,21,02,02,0.00
2008,12,21,02,03,0.00
2008,12,21,02,04,0.00
2008,12,21,02,05,0.00
2008,12,21,02,06,0.00
2008,12,21,02,07,0.00
2008,12,21,02,08,0.00
2008,12,21,02,09,0.00
2008,12,21,02,10,0.00
2008,12,21,02,11,0.00
2008,12,21,02,12,0.00
2008,12,21,02,13,0.00
2008,12,21,02,14,0.00
2008,12,21,02,15,0.00
2008,12,21,02,16,0.00
2008,12,21,02,17,0.00
2008,12,21,02,18,0.00
2008,12,21,02,19,0.00
2008,12,21,02,20,0.00
2008,12,21,02,21,0.00
2008,12,21,02,22,0.00
2008,12,21,02,23,0.00
2008,12,21,02,24,0.00
2008,12,21,02,25,0.00
2008,12,21,02,26,0.00
2008,12,21,02,27,0.00
2008,12,21,02,28,0.00
2008,12,21,02,29,0.00
2008,12,21,02,30,0.00
2008,12,21,02,31,0.00
2008,12,21,02,32,0.00
2008,12,21,02,33,0.00
2008,12,21,02,34,0.00
2008,12,21,02,35,0.00
2008,12,21,02,36,0.00
2008,12,21,02,37,0.00
2008,12,21,02,38,0.00
2008,12,21,02,39,0.00
2008,12,21,02,40,0.00
2008,12,21,02,41,0.00
2008,12,21,02,42,0.00
2008,12,21,02,43,0.00
2008,12,21,02,44,0.00
2008,12,21,02,45,0.00
2008,12,21,02,46,0.00
2008,12,21,02,47,0.00
2008,12,21,02,48,0.00
2008,12,21,02,49,0.00
2008,12,21,02,50,0.00
2008,12,21,02,51,0.00
2008,12,21,02,52,0.00
2008,12,21,02,53,0.00
2008,12,21,02,54,0.00
2008,12,21,02,55,0.00
2008,12,21,02,56,0.00
2008,12,21,02,57,0.00
2008,12,21,02,58,0.00
2008,12,21,02,59,0.00
2008,12,21,03,00,0.00
2008,12,21,03,01,0.00
2008,12,21,03,02,0.00
2008,12,21,03,03,0.00
2008,12,21,03,04,0.00
2008,12,21,03,05,0.00
2008,12,21,03,06,0.00
2008,12,21,03,07,0.00
2008,12,21,03,08,0.00
2008,12,21,03,09,0.00
2008,12,21,03,10,0.00
2008,12,21,03,11,0.00
2008,12,21,03,12,0.00
2008,12,21,03,13,0.00
2008,12,21,03,14,0.00
2008,12,21,03,15,0.00
2008,12,21,03,16,0.00
2008,12,21,03,17,0.00
2008,12,21,03,18,0.00
2008,12,21,03,19,0.00
2008,12,21,03,20,0.00
2008,12,21,03,21,0.00
2008,12,21,03,22,0.00
2008,12,21,03,23,0.00
2008,12,21,03,24,0.00
2008,12,21,03,25,0.00
2008,12,21,03,26,0.00
2008,12,21,03,27,0.00
2008,12,21,03,28,0.00
2008,12,21,03,29,0.00
2008,12,21,03,30,0.00
2008,12,21,03,31,0.00
2008,12,21,03,32,0.00
2008,12,21,03,33,0.00
2008,12,21,03,34,0.00
2008,12,21,03,35,0.00
2008,12,21,03,36,0.00
2008,12,21,03,37,0.00
2008,12,21,03,38,0.00
2008,12,21,03,39,0.00
2008,12,21,03,40,0.00
2008,12,21,03,41,0.00
2008,12,21,03,42,0.00
2008,12,21,03,43,0.00
2008,12,21,03,44,0.00
2008,12,21,03,45,0.00
2008,12,21,03,46,0.00
2008,12,21,03,47,0.00
2008,12,21,03,48,0.00
2008,12,21,03,49,0.00
2008,12,21,03,50,0.00
2008,12,21,03,51,0.00
2008,12,21,03,52,0.00
2008,12,21,03,53,0.00
2008,12,21,03,54,0.00
2008,12,21,03,55,0.00
2008,12,21,03,56,0.00
2008,12,21,03,57,0.00
2008,12,21,03,58,0.00
2008,12,21,03,59,0.00
2008,12,21,04,00,0.00
2008,12,21,04,01,0.00
2008,12,21,04,02,0.00
2008,12,21,04,03,0.00
2008,12,21,04,04,0.00
2008,12,21,04,05,0.00
2008,12,21,04,06,0.00
2008,12,21,04,07,0.00
2008,12,21,04,08,0.00
2008,12,21,04,09,0.00
2008,12,21,04,10,0.00
2008,12,21,04,11,0.00
2008,12,21,04,12,0.00
2008,12,21,04,13,0.00
2008,12,21,04,14,0.00
2008,12,21,04,15,0.00
2008,12,21,04,16,0.00
2008,12,21,04,17,0.00
2008,12,21,04,18,0.00
2008,12,21,04,19,0.00
2008,12,21,04,20,0.00
2008,12,21,04,21,0.00
2008,12,21,04,22,0.00
2008,12,21,04,23,0.00
2008,12,21,04,24,0.00
2008,12,21,04,25,0.00
2008,12,21,04,26,0.00
2008,12,21,04,27,0.00
2008,12,21,04,28,0.00
2008,12,21,04,29,0.00
2008,12,21,04,30,0.00
2008,12,21,04,31,0.00
2008,12,21,04,32,0.00
2008,12,21,04,33,0.00
2008,12,21,04,34,0.00
2008,12,21,04,35,0.00
2008,12,21,04,36,0.00
2008,12,21,04,37,0.00
2008,12,21,04,38,0.00
2008,12,21,04,39,0.00
2008,12,21,04,40,0.00
2008,12,21,04,41,0.00
2008,12,21,04,42,0.00
2008,12,21,04,43,0.00
2008,12,21,04,44,0.00
2008,12,21,04,45,0.00
2008,12,21,04,46,0.00
2008,12,21,04,47,0.00
2008,12,21,04,48,0.00
2008,12,21,04,49,0.00
2008,12,21,04,50,0.00
2008,12,21,04,51,0.00
2008,12,21,04,52,0.00
2008,12,21,04,53,0.00
2008,12,21,04,54,0.00
2008,12,21,04,55,0.00
2008,12,21,04,56,0.00
2008,12,21,04,57,0.00
2008,12,21,04,58,0.00
2008,12,21,04,59,0.00
2008,12,21,05,00,0.00
2008,12,21,05,01,0.00
2008,12,21,05,02,0.00
2008,12,21,05,03,0.00
2008,12,21,05,04,0.00
2008,12,21,05,05,0.00
2008,12,21,05,06,0.00
2008,12,21,05,07,0.00
2008,12,21,05,08,0.00
2008,12,21,05,09,0.00
2008,12,21,05,10,0.00
2008,12,21,05,11,0.00
2008,12,21,05,12,0.00
2008,12,21,05,13,0.00
2008,12,21,05,14,0.00
2008,12,21,05,15,0.00
2008,12,21,05,16,0.00
2008,12,21,05,17,0.00
2008,12,21,05,18,0.00
2008,12,21,05,19,0.00
2008,12,21,05,20,0.00
2008,12,21,05,21,0.00
2008,12,21,05,22,0.00
2008,12,21,05,23,0.00
2008,12,21,05,24,0.00
2008,12,21,05,25,0.00
2008,12,21,05,26,0.00
2008,12,21,05,27,0.00
2008,12,21,05,28,0.00
2008,12,21,05,29,0.00
2008,12,21,05,30,0.00
2008,12,21,05,31,0.00
2008,12,21,05,32,0.00
2008,12,21,05,33,0.00
2008,12,21,05,34,0.00
2008,12,21,05,35,0.00
2008,12,21,05,36,0.00
2008,12,21,05,37,0.00
2008,12,21,05,38,0.00
2008,12,21,05,39,0.00
2008,12,21,05,40,0.00
2008,12,21,05,41,0.00
2008,12,21,05,42,0.00
2008,12,21,05,43,0.00
2008,12,21,05,44,0.00
2008,12,21,05,45,0.00
2008,12,21,05,46,0.00
2008,12,21,05,47,0.00
2008,12,21,05,48,0.00
2008,12,21,05,49,0.00
2008,12,21,05,50,0.00
2008,12,21,05,51,0.00
2008,12,21,05,52,0.00
2008,12,21,05,53,0.00
2008,12,21,05,54,0.00
2008,12,21,05,55,0.00
2008,12,21,05,56,0.00
2008,12,21,05,57,0.00
2008,12,21,05,58,0.00
2008,12,21,05,59,0.00
2008,12,21,06,00,0.00
2008,12,21,06,01,0.00
2008,12,21,06,02,0.00
2008,12,21,06,03,0.00
2008,12,21,06,04,0.00
2008,12,21,06,05,0.00
2008,12,21,06,06,0.00
2008,12,21,06,07,0.00
2008,12,21,06,08,0.00
2008,12,21,06,09,0.00
2008,12,21,06,10,0.00
2008,12,21,06,11,0.00
2008,12,21,06,12,0.00
2008,12,21,06,13,0.00
2008,12,21,06,14,0.00
2008,12,21,06,15,0.00
2008,12,21,06,16,0.00
2008,12,21,06,17,0.00
2008,12,21,06,18,0.00
2008,12,21,06,19,0.00
2008,12,21,06,20,0.00
2008,12,21,06,21,0.00
2008,12,21,06,22,0.00
2008,12,21,06,23,0.00
2008,12,21,06,24,0.00
2008,12,21,06,25,0.00
2008,12,21,06,26,0.00
2008,12,21,06,27,0.00
2008,12,21,06,28,0.00
2008,12,21,06,29,0.00
2008,12,21,06,30,0.00
2008,12,21,06,31,0.00
2008,12,21,06,32,0.00
2008,12,21,06,33,0.00
2008,12,21,06,34,0.00
2008,12,21,06,35,0.00
2008,12,21,06,36,0.00
2008,12,21,06,37,0.00
2008,12,21,06,38,0.00
2008,12,21,06,39,0.00
2008,12,21,06,40,0.00
2008,12,21,06,41,0.00
2008,12,21,06,42,0.00
2008,12,21,06,43,0.00
2008,12,21,06,44,0.00
2008,12,21,06,45,0.00
2008,12,21,06,46,0.00
2008,12,21,06,47,0.00
2008,12,21,06,48,0.00
2008,12,21,06,49,0.00
2008,12,21,06,50,0.00
2008,12,21,06,51,0.00
2008,12,21,06,52,0.00
2008,12,21,06,53,0.00
2008,12,21,06,54,0.00
2008,12,21,06,55,0.00
2008,12,21,06,56,0.00
2008,12,21,06,57,0.00
2008,12,21,06,58,0.00
2008,12,21,06,59,0.00
2008,12,21,07,00,0.00
2008,12,21,07,01,0.00
2008,12,21,07,02,0.00
2008,12,21,07,03,0.00
2008,12,21,07,04,0.00
2008,12,21,07,05,0.00
2008,12,21,07,06,0.00
2008,12,21,07,07,0.00
2008,12,21,07,08,0.00
2008,12,21,07,09,0.00
2008,12,21,07,10,0.00
2008,12,21,07,11,0.00
2008,12,21,07,12,0.00
2008,12,21,07,13,0.00
2008,12,21,07,14,0.00
2008,12,21,07,15,0.00
2008,12,21,07,16,0.00
2008,12,21,07,17,0.00
2008,12,21,07,18,0.00
2008,12,21,07,19,0.00
2008,12,21,07,20,0.00
2008,12,21,07,21,0.00
2008,12,21,07,22,0.00
2008,12,21,07,23,0.00
2008,12,21,07,24,0.00
2008,12,21,07,25,0.00
2008,12,21,07,26,0.00
2008,12,21,07,27,0.00
2008,12,21,07,28,0.00
2008,12,21,07,29,0.00
2008,12,21,07,30,0.00
2008,12,21,07,31,0.00
2008,12,21,07,32,0.00
2008,12,21,07,33,0.00
2008,12,21,07,34,0.00
2008,12,21,07,35,0.00
2008,12,21,07,36,0.00
2008,12,21,07,37,0.00
2008,12,21,07,38,0.00
2008,12,21,07,39,0.00
2008,12,21,07,40,0.00
2008,12,21,07,41,0.00
2008,12,21,07,42,0.00
2008,12,21,07,43,0.00
2008,12,21,07,44,0.00
2008,12,21,07,45,0.00
2008,12,21,07,46,0.00
2008,12,21,07,47,0.00
2008,12,21,07,48,0.00
2008,12,21,07,49,0.00
2008,12,21,07,50,0.00
2008,12,21,07,51,0.00
2008,12,21,07,52,0.00
2008,12,21,07,53,0.00
2008,12,21,07,54,0.00
2008,12,21,07,55,0.00
2008,12,21,07,56,0.00
2008,12,21,07,57,0.00
2008,12,21,07,58,0.00
2008,12,21,07,59,0.00
2008,12,21,08,00,0.00
2008,12,21,08,01,0.00
2008,12,21,08,02,0.00
2008,12,21,08,03,0.00
2008,12,21,08,04,0.00
2008,12,21,08,05,0.00
2008,12,21,08,06,0.00
2008,12,21,08,07,0.00
2008,12,21,08,08,0.00
2008,12,21,08,09,0.00
2008,12,21,08,10,0.00
2008,12,21,08,11,0.00
2008,12,21,08,12,0.00
2008,12,21,08,13,0.00
2008,12,21,08,14,0.00
2008,12,21,08,15,0.00
2008,12,21,08,16,0.00
2008,12,21,08,17,0.00
2008,12,21,08,18,0.00
2008,12,21,08,19,0.00
2008,12,21,08,20,0.00
2008,12,21,08,21,0.00
2008,12,21,08,22,0.00
2008,12,21,08,23,0.00
2008,12,21,08,24,0.00
2008,12,21,08,25,0.00
2008,12,21,08,26,0.00
2008,12,21,08,27,0.00
2008,12,21,08,28,0.00
2008,12,21,08,29,0.00
2008,12,21,08,30,0.00
2008,12,21,08,31,0.00
2008,12,21,08,32,0.00
2008,12,21,08,33,0.00
2008,12,21,08,34,0.00
2008,12,21,08,35,0.00
2008,12,21,08,36,0.00
2008,12,21,08,37,0.00
2008,12,21,08,38,0.00
2008,12,21,08,39,0.00
2008,12,21,08,40,0.00
2008,12,21,08,41,0.00
2008,12,21,08,42,0.00
2008,12,21,08,43,0.00
2008,12,21,08,44,0.00
2008,12,21,08,45,0.00
2008,12,21,08,46,0.00
2008,12,21,08,47,0.00
2008,12,21,08,48,0.00
2008,12,21,08,49,0.00
2008,12,21,08,50,0.00
2008,12,21,08,51,0.00
2008,12,21,08,52,0.00
2008,12,21,08,53,0.00
2008,12,21,08,54,0.00
2008,12,21,08,55,0.50
2008,12,21,08,56,5.00
2008,12,21,08,57,5.00
2008,12,21,08,58,5.00
2008,12,21,08,59,5.00
2008,12,21,09,00,5.00
2008,12,21,09,01,5.00
2008,12,21,09,02,5.00
2008,12,21,09,03,5.00
2008,12,21,09,04,5.00
2008,12,21,09,05,5.00
2008,12,21,09,06,5.00
2008,12,21,09,07,5.00
2008,12,21,09,08,5.00
2008,12,21,09,09,5.00
2008,12,21,09,10,5.00
2008,12,21,09,11,5.00
2008,12,21,09,12,5.10
2008,12,21,09,13,7.00
2008,12,21,09,14,7.00
2008,12,21,09,15,7.00
2008,12,21,09,16,7.00
2008,12,21,09,17,7.00
2008,12,21,09,18,7.00
2008,12,21,09,19,7.00
2008,12,21,09,20,7.00
2008,12,21,09,21,5.90
2008,12,21,09,22,5.00
2008,12,21,09,23,6.60
2008,12,21,09,24,5.10
2008,12,21,09,25,7.00
2008,12,21,09,26,7.00
2008,12,21,09,27,7.00
2008,12,21,09,28,7.00
2008,12,21,09,29,7.00
2008,12,21,09,30,7.20
2008,12,21,09,31,9.00
2008,12,21,09,32,8.20
2008,12,21,09,33,7.00
2008,12,21,09,34,7.00
2008,12,21,09,35,7.00
2008,12,21,09,36,7.00
2008,12,21,09,37,7.00
2008,12,21,09,38,7.00
2008,12,21,09,39,8.10
2008,12,21,09,40,9.00
2008,12,21,09,41,9.00
2008,12,21,09,42,11.00
2008,12,21,09,43,11.00
2008,12,21,09,44,10.20
2008,12,21,09,45,9.00
2008,12,21,09,46,9.00
2008,12,21,09,47,7.10
2008,12,21,09,48,7.30
2008,12,21,09,49,9.60
2008,12,21,09,50,10.10
2008,12,21,09,51,9.00
2008,12,21,09,52,9.00
2008,12,21,09,53,9.10
2008,12,21,09,54,11.00
2008,12,21,09,55,11.30
2008,12,21,09,56,13.10
2008,12,21,09,57,14.00
2008,12,21,09,58,12.40
2008,12,21,09,59,13.70
2008,12,21,10,00,14.00
2008,12,21,10,01,14.00
2008,12,21,10,02,14.00
2008,12,21,10,03,15.20
2008,12,21,10,04,16.00
2008,12,21,10,05,16.00
2008,12,21,10,06,16.40
2008,12,21,10,07,18.40
2008,12,21,10,08,18.50
2008,12,21,10,09,18.00
2008,12,21,10,10,18.00
2008,12,21,10,11,16.00
2008,12,21,10,12,16.00
2008,12,21,10,13,16.00
2008,12,21,10,14,16.00
2008,12,21,10,15,16.00
2008,12,21,10,16,16.00
2008,12,21,10,17,15.80
2008,12,21,10,18,14.50
2008,12,21,10,19,15.20
2008,12,21,10,20,14.00
2008,12,21,10,21,15.50
2008,12,21,10,22,14.20
2008,12,21,10,23,16.30
2008,12,21,10,24,18.00
2008,12,21,10,25,18.00
2008,12,21,10,26,18.00
2008,12,21,10,27,18.70
2008,12,21,10,28,19.00
2008,12,21,10,29,19.00
2008,12,21,10,30,19.00
2008,12,21,10,31,19.00
2008,12,21,10,32,19.00
2008,12,21,10,33,19.00
2008,12,21,10,34,18.90
2008,12,21,10,35,18.00
2008,12,21,10,36,18.00
2008,12,21,10,37,18.00
2008,12,21,10,38,16.70
2008,12,21,10,39,17.60
2008,12,21,10,40,18.00
2008,12,21,10,41,17.50
2008,12,21,10,42,16.00
2008,12,21,10,43,16.00
2008,12,21,10,44,16.00
2008,12,21,10,45,16.00
2008,12,21,10,46,16.00
2008,12,21,10,47,16.00
2008,12,21,10,48,16.00
2008,12,21,10,49,16.00
2008,12,21,10,50,16.00
2008,12,21,10,51,17.70
2008,12,21,10,52,18.00
2008,12,21,10,53,17.50
2008,12,21,10,54,16.00
2008,12,21,10,55,17.20
2008,12,21,10,56,18.00
2008,12,21,10,57,18.00
2008,12,21,10,58,16.00
2008,12,21,10,59,16.00
2008,12,21,11,00,16.00
2008,12,21,11,01,17.20
2008,12,21,11,02,18.00
2008,12,21,11,03,18.00
2008,12,21,11,04,18.10
2008,12,21,11,05,19.00
2008,12,21,11,06,18.50
2008,12,21,11,07,18.00
2008,12,21,11,08,18.00
2008,12,21,11,09,18.00
2008,12,21,11,10,17.70
2008,12,21,11,11,16.00
2008,12,21,11,12,16.00
2008,12,21,11,13,16.00
2008,12,21,11,14,17.60
2008,12,21,11,15,18.10
2008,12,21,11,16,19.00
2008,12,21,11,17,19.70
2008,12,21,11,18,21.00
2008,12,21,11,19,21.00
2008,12,21,11,20,21.00
2008,12,21,11,21,21.00
2008,12,21,11,22,20.60
2008,12,21,11,23,19.00
2008,12,21,11,24,19.00
2008,12,21,11,25,19.00
2008,12,21,11,26,19.00
2008,12,21,11,27,19.00
2008,12,21,11,28,19.50
2008,12,21,11,29,21.00
2008,12,21,11,30,22.10
2008,12,21,11,31,24.40
2008,12,21,11,32,23.30
2008,12,21,11,33,23.20
2008,12,21,11,34,25.20
2008,12,21,11,35,26.00
2008,12,21,11,36,25.40
2008,12,21,11,37,25.70
2008,12,21,11,38,26.00
2008,12,21,11,39,27.70
2008,12,21,11,40,26.50
2008,12,21,11,41,28.00
2008,12,21,11,42,29.20
2008,12,21,11,43,30.00
2008,12,21,11,44,30.00
2008,12,21,11,45,30.00
2008,12,21,11,46,30.00
2008,12,21,11,47,30.00
2008,12,21,11,48,30.00
2008,12,21,11,49,30.00
2008,12,21,11,50,28.10
2008,12,21,11,51,27.70
2008,12,21,11,52,26.00
2008,12,21,11,53,26.90
2008,12,21,11,54,28.00
2008,12,21,11,55,26.50
2008,12,21,11,56,25.10
2008,12,21,11,57,25.00
2008,12,21,11,58,25.00
2008,12,21,11,59,25.00
2008,12,21,12,00,25.00
2008,12,21,12,01,27.40
2008,12,21,12,02,30.00
2008,12,21,12,03,31.60
2008,12,21,12,04,28.50
2008,12,21,12,05,26.00
2008,12,21,12,06,26.00
2008,12,21,12,07,25.20
2008,12,21,12,08,23.20
2008,12,21,12,09,26.80
2008,12,21,12,10,32.40
2008,12,21,12,11,32.50
2008,12,21,12,12,27.90
2008,12,21,12,13,25.20
2008,12,21,12,14,23.20
2008,12,21,12,15,23.40
2008,12,21,12,16,24.30
2008,12,21,12,17,22.00
2008,12,21,12,18,22.50
2008,12,21,12,19,21.30
2008,12,21,12,20,23.00
2008,12,21,12,21,23.60
2008,12,21,12,22,26.20
2008,12,21,12,23,28.00
2008,12,21,12,24,26.00
2008,12,21,12,25,25.00
2008,12,21,12,26,26.30
2008,12,21,12,27,28.00
2008,12,21,12,28,27.10
2008,12,21,12,29,25.40
2008,12,21,12,30,22.20
2008,12,21,12,31,24.40
2008,12,21,12,32,24.70
2008,12,21,12,33,21.80
2008,12,21,12,34,18.50
2008,12,21,12,35,18.00
2008,12,21,12,36,18.80
2008,12,21,12,37,20.70
2008,12,21,12,38,20.70
2008,12,21,12,39,18.70
2008,12,21,12,40,18.50
2008,12,21,12,41,20.20
2008,12,21,12,42,18.50
2008,12,21,12,43,16.20
2008,12,21,12,44,18.00
2008,12,21,12,45,18.00
2008,12,21,12,46,18.00
2008,12,21,12,47,18.00
2008,12,21,12,48,18.00
2008,12,21,12,49,18.00
2008,12,21,12,50,18.00
2008,12,21,12,51,18.00
2008,12,21,12,52,18.50
2008,12,21,12,53,19.00
2008,12,21,12,54,20.50
2008,12,21,12,55,20.80
2008,12,21,12,56,18.70
2008,12,21,12,57,18.00
2008,12,21,12,58,18.50
2008,12,21,12,59,20.50
2008,12,21,13,00,19.30
2008,12,21,13,01,17.90
2008,12,21,13,02,16.00
2008,12,21,13,03,16.00
2008,12,21,13,04,17.10
2008,12,21,13,05,21.70
2008,12,21,13,06,25.70
2008,12,21,13,07,25.50
2008,12,21,13,08,23.00
2008,12,21,13,09,23.00
2008,12,21,13,10,24.30
2008,12,21,13,11,25.00
2008,12,21,13,12,25.00
2008,12,21,13,13,26.00
2008,12,21,13,14,24.60
2008,12,21,13,15,19.80
2008,12,21,13,16,16.90
2008,12,21,13,17,16.00
2008,12,21,13,18,19.10
2008,12,21,13,19,23.30
2008,12,21,13,20,25.30
2008,12,21,13,21,27.90
2008,12,21,13,22,30.00
2008,12,21,13,23,26.80
2008,12,21,13,24,25.10
2008,12,21,13,25,26.00
2008,12,21,13,26,26.70
2008,12,21,13,27,26.90
2008,12,21,13,28,25.40
2008,12,21,13,29,25.00
2008,12,21,13,30,24.80
2008,12,21,13,31,22.50
2008,12,21,13,32,21.00
2008,12,21,13,33,21.00
2008,12,21,13,34,21.00
2008,12,21,13,35,22.70
2008,12,21,13,36,23.00
2008,12,21,13,37,22.50
2008,12,21,13,38,21.00
2008,12,21,13,39,21.00
2008,12,21,13,40,22.30
2008,12,21,13,41,23.00
2008,12,21,13,42,23.00
2008,12,21,13,43,22.40
2008,12,21,13,44,20.20
2008,12,21,13,45,19.00
2008,12,21,13,46,18.30
2008,12,21,13,47,18.00
2008,12,21,13,48,18.10
2008,12,21,13,49,18.70
2008,12,21,13,50,18.00
2008,12,21,13,51,18.00
2008,12,21,13,52,16.60
2008,12,21,13,53,16.00
2008,12,21,13,54,16.00
2008,12,21,13,55,16.00
2008,12,21,13,56,15.10
2008,12,21,13,57,14.00
2008,12,21,13,58,14.00
2008,12,21,13,59,14.00
2008,12,21,14,00,14.00
2008,12,21,14,01,14.00
2008,12,21,14,02,14.00
2008,12,21,14,03,14.00
2008,12,21,14,04,14.00
2008,12,21,14,05,14.00
2008,12,21,14,06,14.00
2008,12,21,14,07,14.00
2008,12,21,14,08,14.00
2008,12,21,14,09,12.70
2008,12,21,14,10,12.00
2008,12,21,14,11,11.00
2008,12,21,14,12,11.00
2008,12,21,14,13,11.40
2008,12,21,14,14,12.00
2008,12,21,14,15,12.00
2008,12,21,14,16,12.00
2008,12,21,14,17,12.20
2008,12,21,14,18,14.00
2008,12,21,14,19,14.00
2008,12,21,14,20,14.00
2008,12,21,14,21,14.00
2008,12,21,14,22,14.00
2008,12,21,14,23,14.00
2008,12,21,14,24,14.00
2008,12,21,14,25,14.00
2008,12,21,14,26,12.80
2008,12,21,14,27,12.00
2008,12,21,14,28,12.00
2008,12,21,14,29,12.00
2008,12,21,14,30,12.00
2008,12,21,14,31,11.60
2008,12,21,14,32,11.00
2008,12,21,14,33,11.80
2008,12,21,14,34,12.00
2008,12,21,14,35,12.00
2008,12,21,14,36,12.60
2008,12,21,14,37,14.00
2008,12,21,14,38,14.00
2008,12,21,14,39,15.60
2008,12,21,14,40,16.00
2008,12,21,14,41,16.00
2008,12,21,14,42,16.00
2008,12,21,14,43,16.00
2008,12,21,14,44,16.00
2008,12,21,14,45,16.00
2008,12,21,14,46,15.90
2008,12,21,14,47,14.00
2008,12,21,14,48,14.00
2008,12,21,14,49,14.00
2008,12,21,14,50,14.00
2008,12,21,14,51,14.00
2008,12,21,14,52,15.90
2008,12,21,14,53,16.00
2008,12,21,14,54,16.70
2008,12,21,14,55,16.90
2008,12,21,14,56,16.00
2008,12,21,14,57,16.00
2008,12,21,14,58,16.00
2008,12,21,14,59,15.50
2008,12,21,15,00,14.00
2008,12,21,15,01,14.00
2008,12,21,15,02,12.60
2008,12,21,15,03,12.00
2008,12,21,15,04,11.00
2008,12,21,15,05,11.00
2008,12,21,15,06,11.00
2008,12,21,15,07,11.00
2008,12,21,15,08,11.70
2008,12,21,15,09,12.00
2008,12,21,15,10,12.00
2008,12,21,15,11,12.00
2008,12,21,15,12,11.50
2008,12,21,15,13,11.60
2008,12,21,15,14,12.00
2008,12,21,15,15,12.00
2008,12,21,15,16,10.70
2008,12,21,15,17,9.00
2008,12,21,15,18,9.00
2008,12,21,15,19,9.00
2008,12,21,15,20,9.00
2008,12,21,15,21,7.10
2008,12,21,15,22,7.00
2008,12,21,15,23,7.00
2008,12,21,15,24,7.00
2008,12,21,15,25,7.00
2008,12,21,15,26,7.00
2008,12,21,15,27,7.00
2008,12,21,15,28,7.00
2008,12,21,15,29,7.00
2008,12,21,15,30,7.00
2008,12,21,15,31,7.00
2008,12,21,15,32,5.30
2008,12,21,15,33,5.00
2008,12,21,15,34,5.00
2008,12,21,15,35,5.00
2008,12,21,15,36,5.00
2008,12,21,15,37,5.00
2008,12,21,15,38,5.00
2008,12,21,15,39,5.00
2008,12,21,15,40,5.00
2008,12,21,15,41,5.00
2008,12,21,15,42,5.00
2008,12,21,15,43,5.00
2008,12,21,15,44,5.00
2008,12,21,15,45,4.20
2008,12,21,15,46,0.00
2008,12,21,15,47,0.00
2008,12,21,15,48,0.00
2008,12,21,15,49,0.00
2008,12,21,15,50,0.00
2008,12,21,15,51,0.00
2008,12,21,15,52,0.00
2008,12,21,15,53,0.00
2008,12,21,15,54,0.00
2008,12,21,15,55,0.00
2008,12,21,15,56,0.00
2008,12,21,15,57,0.00
2008,12,21,15,58,0.00
2008,12,21,15,59,0.00
2008,12,21,16,00,0.00
2008,12,21,16,01,0.00
2008,12,21,16,02,0.00
2008,12,21,16,03,0.00
2008,12,21,16,04,0.00
2008,12,21,16,05,0.00
2008,12,21,16,06,0.00
2008,12,21,16,07,0.00
2008,12,21,16,08,0.00
2008,12,21,16,09,0.00
2008,12,21,16,10,0.00
2008,12,21,16,11,0.00
2008,12,21,16,12,0.00
2008,12,21,16,13,0.00
2008,12,21,16,14,0.00
2008,12,21,16,15,0.00
2008,12,21,16,16,0.00
2008,12,21,16,17,0.00
2008,12,21,16,18,0.00
2008,12,21,16,19,0.00
2008,12,21,16,20,0.00
2008,12,21,16,21,0.00
2008,12,21,16,22,0.00
2008,12,21,16,23,0.00
2008,12,21,16,24,0.00
2008,12,21,16,25,0.00
2008,12,21,16,26,0.00
2008,12,21,16,27,0.00
2008,12,21,16,28,0.00
2008,12,21,16,29,0.00
2008,12,21,16,30,0.00
2008,12,21,16,31,0.00
2008,12,21,16,32,0.00
2008,12,21,16,33,0.00
2008,12,21,16,34,0.00
2008,12,21,16,35,0.00
2008,12,21,16,36,0.00
2008,12,21,16,37,0.00
2008,12,21,16,38,0.00
2008,12,21,16,39,0.00
2008,12,21,16,40,0.00
2008,12,21,16,41,0.00
2008,12,21,16,42,0.00
2008,12,21,16,43,0.00
2008,12,21,16,44,0.00
2008,12,21,16,45,0.00
2008,12,21,16,46,0.00
2008,12,21,16,47,0.00
2008,12,21,16,48,0.00
2008,12,21,16,49,0.00
2008,12,21,16,50,0.00
2008,12,21,16,51,0.00
2008,12,21,16,52,0.00
2008,12,21,16,53,0.00
2008,12,21,16,54,0.00
2008,12,21,16,55,0.00
2008,12,21,16,56,0.00
2008,12,21,16,57,0.00
2008,12,21,16,58,0.00
2008,12,21,16,59,0.00
2008,12,21,17,00,0.00
2008,12,21,17,01,0.00
2008,12,21,17,02,0.00
2008,12,21,17,03,0.00
2008,12,21,17,04,0.00
2008,12,21,17,05,0.00
2008,12,21,17,06,0.00
2008,12,21,17,07,0.00
2008,12,21,17,08,0.00
2008,12,21,17,09,0.00
2008,12,21,17,10,0.00
2008,12,21,17,11,0.00
2008,12,21,17,12,0.00
2008,12,21,17,13,0.00
2008,12,21,17,14,0.00
2008,12,21,17,15,0.00
2008,12,21,17,16,0.00
2008,12,21,17,17,0.00
2008,12,21,17,18,0.00
2008,12,21,17,19,0.00
2008,12,21,17,20,0.00
2008,12,21,17,21,0.00
2008,12,21,17,22,0.00
2008,12,21,17,23,0.00
2008,12,21,17,24,0.00
2008,12,21,17,25,0.00
2008,12,21,17,26,0.00
2008,12,21,17,27,0.00
2008,12,21,17,28,0.00
2008,12,21,17,29,0.00
2008,12,21,17,30,0.00
2008,12,21,17,31,0.00
2008,12,21,17,32,0.00
2008,12,21,17,33,0.00
2008,12,21,17,34,0.00
2008,12,21,17,35,0.00
2008,12,21,17,36,0.00
2008,12,21,17,37,0.00
2008,12,21,17,38,0.00
2008,12,21,17,39,0.00
2008,12,21,17,40,0.00
2008,12,21,17,41,0.00
2008,12,21,17,42,0.00
2008,12,21,17,43,0.00
2008,12,21,17,44,0.00
2008,12,21,17,45,0.00
2008,12,21,17,46,0.00
2008,12,21,17,47,0.00
2008,12,21,17,48,0.00
2008,12,21,17,49,0.00
2008,12,21,17,50,0.00
2008,12,21,17,51,0.00